TimeCST,TemperatureF,Dew PointF,Humidity,Sea Level PressureIn,VisibilityMPH,Wind Direction,Wind SpeedMPH,Gust SpeedMPH,PrecipitationIn,Events,Conditions,WindDirDegrees,DateUTC
12:56 AM,26.1,12.0,55,30.36,10.0,Calm,Calm,-,N/A,,Clear,0,2013-02-02 06:56:00
1:56 AM,27.1,13.1,56,30.34,10.0,SE,4.6,-,N/A,,Clear,130,2013-02-02 07:56:00
2:56 AM,27.1,12.0,53,30.33,10.0,Calm,Calm,-,N/A,,Clear,0,2013-02-02 08:56:00
3:56 AM,26.1,13.1,58,30.32,10.0,South,8.1,-,N/A,,Clear,180,2013-02-02 09:56:00
4:56 AM,28.0,12.0,51,30.30,10.0,South,5.8,-,N/A,,Clear,170,2013-02-02 10:56:00
5:56 AM,27.1,13.1,56,30.30,10.0,South,9.2,-,N/A,,Clear,170,2013-02-02 11:56:00
6:56 AM,28.0,14.0,56,30.29,10.0,South,9.2,-,N/A,,Partly Cloudy,180,2013-02-02 12:56:00
7:56 AM,31.1,14.0,49,30.32,10.0,South,6.9,-,N/A,,Scattered Clouds,190,2013-02-02 13:56:00
8:56 AM,32.9,17.1,52,30.32,10.0,South,8.1,-,0.00,Rain,Light Rain,190,2013-02-02 14:56:00
9:56 AM,36.0,18.1,48,30.30,10.0,SSW,8.1,-,0.00,,Mostly Cloudy,200,2013-02-02 15:56:00
10:56 AM,41.9,24.1,49,30.27,10.0,SW,12.7,-,N/A,,Scattered Clouds,220,2013-02-02 16:56:00
11:56 AM,47.8,28.0,46,30.23,10.0,SW,9.2,-,N/A,,Partly Cloudy,220,2013-02-02 17:56:00
12:56 PM,46.9,31.1,54,30.20,10.0,WSW,10.4,-,N/A,,Mostly Cloudy,240,2013-02-02 18:56:00
1:47 PM,42.8,35.6,76,30.16,3.0,WSW,4.6,-,0.01,Rain,Light Rain,240,2013-02-02 19:47:00
1:56 PM,41.9,34.9,76,30.20,7.0,West,5.8,-,0.02,Rain,Light Rain,270,2013-02-02 19:56:00
2:25 PM,41.0,37.4,87,30.17,2.5,Calm,Calm,-,0.01,Rain,Rain,0,2013-02-02 20:25:00
2:45 PM,41.0,37.4,87,30.17,4.0,SW,4.6,-,0.04,Rain,Rain,230,2013-02-02 20:45:00
2:56 PM,41.0,37.9,89,30.20,2.5,WSW,6.9,-,0.05,Rain,Rain,250,2013-02-02 20:56:00
3:12 PM,39.2,37.4,93,30.18,1.8,Calm,Calm,-,0.04,Rain,Heavy Rain,0,2013-02-02 21:12:00
3:20 PM,39.2,39.2,100,30.18,3.0,Variable,3.5,-,0.06,Rain,Heavy Rain,0,2013-02-02 21:20:00
3:31 PM,39.2,39.2,100,30.18,5.0,Variable,6.9,-,0.06,Rain,Light Rain,0,2013-02-02 21:31:00
3:39 PM,39.2,39.2,100,30.18,10.0,West,8.1,-,0.06,Rain,Light Rain,260,2013-02-02 21:39:00
3:56 PM,39.9,37.9,93,30.19,10.0,WSW,4.6,-,0.06,,Mostly Cloudy,240,2013-02-02 21:56:00
4:48 PM,41.0,39.2,93,30.15,10.0,WSW,6.9,-,0.00,,Partly Cloudy,240,2013-02-02 22:48:00
4:56 PM,39.9,38.8,96,30.19,10.0,WSW,5.8,-,0.00,,Partly Cloudy,250,2013-02-02 22:56:00
6:49 PM,37.4,37.4,100,30.17,3.0,Calm,Calm,-,N/A,,Mostly Cloudy,0,2013-02-03 00:49:00
6:56 PM,37.9,37.9,100,30.21,4.0,SW,5.8,-,N/A,,Mostly Cloudy,230,2013-02-03 00:56:00
7:03 PM,37.4,37.4,100,30.18,1.8,WSW,6.9,-,N/A,,Overcast,240,2013-02-03 01:03:00
7:05 PM,37.4,37.4,100,30.18,1.0,West,6.9,-,N/A,,Overcast,260,2013-02-03 01:05:00
7:56 PM,37.9,37.9,100,30.23,0.5,West,6.9,-,N/A,Fog,Fog,280,2013-02-03 01:56:00
8:32 PM,37.4,37.4,100,30.21,0.8,West,6.9,-,N/A,,Overcast,280,2013-02-03 02:32:00
8:47 PM,37.4,37.4,100,30.21,1.2,Variable,4.6,-,N/A,,Overcast,0,2013-02-03 02:47:00
8:56 PM,37.9,37.9,100,30.24,1.2,Variable,3.5,-,N/A,,Overcast,0,2013-02-03 02:56:00
9:03 PM,37.4,37.4,100,30.21,1.8,Calm,Calm,-,N/A,,Overcast,0,2013-02-03 03:03:00
9:09 PM,37.4,37.4,100,30.21,3.0,Calm,Calm,-,N/A,,Overcast,0,2013-02-03 03:09:00
9:31 PM,37.4,37.4,100,30.19,5.0,Calm,Calm,-,N/A,,Scattered Clouds,0,2013-02-03 03:31:00
9:41 PM,35.6,35.6,100,30.20,1.8,Calm,Calm,-,N/A,,Clear,0,2013-02-03 03:41:00
9:56 PM,36.9,36.9,100,30.23,4.0,Calm,Calm,-,N/A,,Clear,0,2013-02-03 03:56:00
10:10 PM,35.6,35.6,100,30.20,1.5,Calm,Calm,-,N/A,,Clear,0,2013-02-03 04:10:00
10:12 PM,35.6,35.6,100,30.20,1.0,Calm,Calm,-,N/A,,Clear,0,2013-02-03 04:12:00
10:21 PM,35.6,35.6,100,30.20,1.5,Calm,Calm,-,N/A,,Clear,0,2013-02-03 04:21:00
10:25 PM,35.6,35.6,100,30.20,1.0,Calm,Calm,-,N/A,,Clear,0,2013-02-03 04:25:00
10:28 PM,35.6,35.6,100,30.20,0.5,Calm,Calm,-,N/A,Fog,Fog,0,2013-02-03 04:28:00
10:42 PM,35.6,35.6,100,30.20,1.0,Calm,Calm,-,N/A,,Clear,0,2013-02-03 04:42:00
10:47 PM,35.6,35.6,100,30.20,1.5,Calm,Calm,-,N/A,,Clear,0,2013-02-03 04:47:00
10:56 PM,34.0,34.0,100,30.23,0.8,Calm,Calm,-,N/A,,Clear,0,2013-02-03 04:56:00
11:01 PM,35.6,35.6,100,30.20,1.2,Calm,Calm,-,N/A,,Clear,0,2013-02-03 05:01:00
11:09 PM,35.6,35.6,100,30.20,1.8,Calm,Calm,-,N/A,,Clear,0,2013-02-03 05:09:00
11:16 PM,33.8,33.8,100,30.20,1.0,Calm,Calm,-,N/A,,Clear,0,2013-02-03 05:16:00
11:23 PM,33.8,33.8,100,30.20,0.5,Calm,Calm,-,N/A,Fog,Fog,0,2013-02-03 05:23:00
11:36 PM,32.0,32.0,100,30.19,0.2,Calm,Calm,-,N/A,Fog,Fog,0,2013-02-03 05:36:00
11:56 PM,32.9,32.9,100,30.22,0.2,Calm,Calm,-,N/A,Fog,Fog,0,2013-02-03 05:56:00